Regional Weather Roundup
Issued by NWS Sterling, VA

Home | Current Version | Previous Version | Text Only | Print | Product List | Glossary On
Versions: 1 2 3 4 5 6 7 8 9 10 11 12 13 14 15 16 17 18 19 20 21 22 23 24 25 26 27 28 29 30 31 32 33 34 35 36 37 38 39 40 41 42 43 44 45 46 47 48 49 50
000
ASUS41 KLWX 291110
RWRLWX

REGIONAL WEATHER ROUNDUP
NATIONAL WEATHER SERVICE BALTIMORE MD/WASHINGTON DC
700 AM EDT FRI MAY 29 2015

Note: "FAIR" indicates few or no clouds below 12,000 feet
with no significant weather and/or obstructions to visibility.
 TC=TEMPERATURE CELSIUS

 * =Non NWS site. Station does not report precipitation (e.g. rain,
    snow, etc.), thunder, or fog.

DCZ001-MDZ009-015-VAZ040>042-051-053>054-291200-
WASHINGTON METRO

CITY           SKY/WX    TMP DP  RH WIND       PRES   REMARKS
WASHINGTON NAT PTSUNNY   74  66  76 NE9       30.25R
DULLES         MOSUNNY   71  64  78 NE8       30.25R
ANDREWS AFB    PTSUNNY   69  69  99 NE5       30.24R
FT BELVOIR     CLOUDY    72  69  91 VRB5      30.24R
QUANTICO       CLOUDY    72  69  90 E8        30.24R
COLLEGE PARK*  PTSUNNY   70  63  78 NE3       30.25R
LEESBURG*      SUNNY     68  61  77 N7        30.27R
MANASSAS*      CLOUDY    72  70  94 CALM      30.24R
GAITHERSBURG*  SUNNY     66  55  68 NE5       30.30R

$$

MDZ006>007-011-014-291200-
BALTIMORE METRO

CITY           SKY/WX    TMP DP  RH WIND       PRES   REMARKS
BWI AIRPORT    MOSUNNY   71  58  63 NE9       30.25R
MD SCIENCE CTR   N/A     71  55  56 MISG      30.27R
MARTIN STATE   MOSUNNY   72  61  68 CALM      30.27R
ANNAPOLIS      CLOUDY    71  61  70 NE5       30.25R
FORT MEADE*    SUNNY     68  59  73 E7        30.28R

$$

MDZ012-015-019>023-291200-
MARYLAND EASTERN SHORE

CITY           SKY/WX    TMP DP  RH WIND       PRES   REMARKS
OCEAN CITY     PTSUNNY   65  63  93 CALM      30.25R
SALISBURY      CLOUDY    66  63  90 CALM      30.25R
CAMBRIDGE*     PTSUNNY   72  68  88 CALM      30.24R
EASTON*        CLOUDY    73  73 100 E3        30.28R

$$

MDZ017>025-291200-
SOUTHERN MARYLAND

CITY           SKY/WX    TMP DP  RH WIND       PRES   REMARKS
PATUXENT RIVER MOSUNNY   70  69  97 SE5       30.23R
ST INIGOES     SUNNY     69  67  93 CALM      30.23R
LEONARDTOWN*   SUNNY     68  66  94 CALM      30.25R

$$

MDZ003>005-291200-
NORTH CENTRAL MARYLAND

CITY           SKY/WX    TMP DP  RH WIND       PRES   REMARKS
FREDERICK*     SUNNY     64  59  82 NE6       30.30R
HAGERSTOWN APT SUNNY     66  54  65 N6        30.28R
WESTMINSTER*   SUNNY     68  54  60 E5        30.28R

$$

MDZ501>502-291200-
WESTERN MARYLAND

CITY           SKY/WX    TMP DP  RH WIND       PRES   REMARKS
OAKLAND*       SUNNY     59  59 100 SE9       30.33R
CUMBERLAND*    CLOUDY    66  59  77 CALM      30.32R

$$

VAZ025>031-291200-
SHENANDOAH VALLEY

CITY           SKY/WX    TMP DP  RH WIND       PRES   REMARKS
WINCHESTER*    CLOUDY    68  52  56 CALM      30.27R
FRONT ROYAL*   CLOUDY    64  61  88 CALM      30.26R
LURAY*         FAIR      63  63 100 CALM      30.26R FOG
NEW MARKET*    CLOUDY    63  63 100 CALM      30.25R VSB<1/4
STAUNTON*      FOG       64  63  96 CALM      30.29R VSB<1/4
WAYNESBORO*    FAIR      62  61  98 CALM      30.27R

$$

WVZ021-048>050-054>055-291200-
EASTERN WEST VIRGINIA PANHANDLE

CITY           SKY/WX    TMP DP  RH WIND       PRES   REMARKS
MARTINSBURG    MOSUNNY   68  54  60 NE6       30.28R
PETERSBURG*    FOG       62  60  94 CALM      30.29S VSB 1/2

$$

VAZ036>039-050-291200-
CENTRAL FOOTHILLS

CITY           SKY/WX    TMP DP  RH WIND       PRES   REMARKS
CHARLOTTESVILL MOSUNNY   64  62  93 CALM      30.24R
CULPEPER*      CLOUDY    67  66  96 CALM      30.25R
ORANGE*        PTSUNNY   70  66  88 CALM      30.26R
GORDONSVILLE*  FAIR      64  64  99 CALM      30.24R
WARRENTON*     CLOUDY    69  69  98 N5        30.24R

$$

VAZ055>057-291200-
NORTH AND CENTRAL PIEDMONT

CITY           SKY/WX    TMP DP  RH WIND       PRES   REMARKS
FREDERICKSBRG* FOG       69  69 100 N3        30.22R VSB<1/4
STAFFORD*      CLOUDY    70  68  95 NE3       30.27R FOG

$$

NCZ024-NYZ072-PAZ021-071-VAZ022-071-291200-
OTHER REGIONAL OBSERVATIONS

CITY           SKY/WX    TMP DP  RH WIND       PRES   REMARKS
NEW YORK CITY  SUNNY     66  53  63 VRB6      30.32R
PHILADELPHIA   MOSUNNY   69  55  60 NE10      30.28R
PITTSBURGH     PTSUNNY   61  54  77 E5        30.22S
ROANOKE        PTCLDY    67  64  90 CALM      30.27R
RICHMOND       MOSUNNY   69  65  86 SE5       30.22R
RALEIGH        MOSUNNY   68  64  87 S6        30.23R

$$

ANZ530>537-291200-
MARINE OBSERVATIONS

STATION/POSITION TIME  TEMP    WIND        PRES
                       AIR SEA DIR/SP/G
                 (UTC) (F)     (DEG/KT/KT) (MB)
THOMAS PT LIGHT  1100   69 72   50/  9/ 11 1024.7R
BALT KEY BRIDGE  1000   72      40/  7/  9 1023.8R
COVE POINT       1000   70     100/  1/  2 1023.9R
LEWISETTA        1000   71 75              1022.7R
SOLOMONS ISLAND  1000      70                N/A
PINEY POINT      1000          200/  4/  4   N/A

$$



USA.gov is the U.S. government's official web portal to all federal, state and local government web resources and services.